Location: Apeadero de Los Molinos-Guadarrama
(40.7091°N, 4.0689°W)
Time: 22:22:14
(UTC+00:00)

ISS - Pass Details

Date: 30 September 2021
Orbit: 417 x 423 km, 51.6° (Epoch: 18 October)

Event Time Altitude Azimuth Distance (km) Brightness Sun altitude
Rises 20:37:46 0° 306° (NW) 2,365 1.2 -30.1°
Reaches altitude 10° 20:39:52 10° 308° (NW) 1,500 -0.1 -30.4°
Enters shadow 20:40:21 14° 308° (NW) 1,304 -0.5 -30.5°
